ARG1814 SABE-SAVY

Flight info

Callsign ARG1814
Flight time 1h 35m
Altitude 38000
Route PAL9 GBE UT694 IREMO UP664 VIE DCT MIGUS DCT NUEXE DCT
Aircraft E190/M-SDE3GILORVW/S

Departure

Time 2026-05-06 17:34
Airport Aeroparque Jorge Newbery (SABE)

Arrival

Time 2026-05-06 19:09
Airport El Tehuelche Airport (SAVY)
Time Latitude Longitude Altitude Speed Heading
2026-05-06 16:46 -34.55800 -58.41444 24 ft 0 kts 207°
2026-05-06 17:24 -34.55794 -58.41440 24 ft 4 kts 206°
2026-05-06 17:24 -34.55771 -58.41425 24 ft 4 kts 233°
2026-05-06 17:24 -34.55768 -58.41408 27 ft 4 kts 304°
2026-05-06 17:24 -34.55779 -58.41388 24 ft 0 kts 304°
2026-05-06 17:28 -34.55776 -58.41394 28 ft 2 kts 304°
2026-05-06 17:28 -34.55761 -58.41421 27 ft 6 kts 304°
2026-05-06 17:28 -34.55735 -58.41474 24 ft 8 kts 298°
2026-05-06 17:29 -34.55722 -58.41543 24 ft 6 kts 247°
2026-05-06 17:29 -34.55760 -58.41581 25 ft 10 kts 212°
2026-05-06 17:29 -34.55780 -58.41648 24 ft 10 kts 295°
2026-05-06 17:29 -34.55746 -58.41728 27 ft 12 kts 297°
2026-05-06 17:30 -34.55703 -58.41821 26 ft 14 kts 303°
2026-05-06 17:30 -34.55645 -58.41921 26 ft 15 kts 304°
2026-05-06 17:30 -34.55580 -58.42036 25 ft 17 kts 306°
2026-05-06 17:30 -34.55505 -58.42158 25 ft 19 kts 307°
2026-05-06 17:31 -34.55420 -58.42295 26 ft 21 kts 307°
2026-05-06 17:31 -34.55369 -58.42396 26 ft 12 kts 287°
2026-05-06 17:31 -34.55369 -58.42489 24 ft 10 kts 238°
2026-05-06 17:31 -34.55420 -58.42481 25 ft 8 kts 126°
2026-05-06 17:32 -34.55436 -58.42453 25 ft 0 kts 126°
2026-05-06 17:33 -34.55449 -58.42431 27 ft 17 kts 125°
2026-05-06 17:33 -34.55686 -58.42007 26 ft 103 kts 124°
2026-05-06 17:34 -34.56223 -58.41023 105 ft 173 kts 122°
2026-05-06 17:34 -34.56942 -58.39732 1031 ft 190 kts 121°
2026-05-06 17:34 -34.57549 -58.38182 1522 ft 219 kts 94°
2026-05-06 17:34 -34.57428 -58.36311 2170 ft 226 kts 62°
2026-05-06 17:35 -34.56615 -58.34723 3078 ft 221 kts 39°
2026-05-06 17:35 -34.55475 -58.33460 4066 ft 225 kts 32°
2026-05-06 17:35 -34.54169 -58.32194 4672 ft 251 kts 30°
2026-05-06 17:36 -34.50974 -58.30868 6809 ft 247 kts 347°
2026-05-06 17:36 -34.49367 -58.31592 7861 ft 248 kts 328°
2026-05-06 17:36 -34.48081 -58.32998 8944 ft 253 kts 309°
2026-05-06 17:36 -34.47306 -58.34944 9996 ft 264 kts 289°
2026-05-06 17:37 -34.47223 -58.37272 10633 ft 294 kts 265°
2026-05-06 17:37 -34.48092 -58.39619 11404 ft 316 kts 243°
2026-05-06 17:37 -34.49409 -58.41756 12374 ft 323 kts 238°
2026-05-06 17:37 -34.50863 -58.43867 13427 ft 328 kts 236°
2026-05-06 17:38 -34.52361 -58.45962 14440 ft 330 kts 235°
2026-05-06 17:38 -34.53902 -58.48036 15474 ft 333 kts 234°
2026-05-06 17:38 -34.55523 -58.50080 16443 ft 338 kts 232°
2026-05-06 17:38 -34.57250 -58.52049 17381 ft 344 kts 228°
2026-05-06 17:39 -34.59011 -58.54011 18242 ft 341 kts 237°
2026-05-06 17:39 -34.60318 -58.56365 18991 ft 341 kts 240°
2026-05-06 17:39 -34.62114 -58.58354 19696 ft 363 kts 218°
2026-05-06 17:39 -34.64519 -58.59499 20436 ft 384 kts 198°
2026-05-06 17:40 -34.67249 -58.59557 21149 ft 405 kts 175°
2026-05-06 17:40 -34.70002 -58.58656 21886 ft 414 kts 167°
2026-05-06 17:40 -34.72745 -58.57544 22554 ft 418 kts 167°
2026-05-06 17:40 -34.75516 -58.56425 23192 ft 423 kts 166°
2026-05-06 17:41 -34.78312 -58.55266 23770 ft 427 kts 166°
2026-05-06 17:41 -34.81123 -58.54036 24302 ft 430 kts 165°
2026-05-06 17:41 -34.83997 -58.53128 24807 ft 424 kts 179°
2026-05-06 17:41 -34.86915 -58.52887 25359 ft 421 kts 185°
2026-05-06 17:42 -34.89854 -58.52707 25894 ft 425 kts 184°
2026-05-06 17:42 -34.92816 -58.52504 26419 ft 428 kts 184°
2026-05-06 17:42 -34.95797 -58.52293 26927 ft 430 kts 184°
2026-05-06 17:42 -34.98797 -58.52082 27396 ft 434 kts 184°
2026-05-06 17:43 -35.01823 -58.51861 27838 ft 438 kts 184°
2026-05-06 17:43 -35.04875 -58.51637 28302 ft 440 kts 184°
2026-05-06 17:43 -35.07939 -58.51410 28724 ft 443 kts 184°
2026-05-06 17:43 -35.11024 -58.51185 29182 ft 445 kts 184°
2026-05-06 17:44 -35.14127 -58.50956 29577 ft 448 kts 184°
2026-05-06 17:44 -35.17245 -58.50728 29939 ft 450 kts 184°
2026-05-06 17:44 -35.20380 -58.50493 30288 ft 453 kts 184°
2026-05-06 17:44 -35.23532 -58.50259 30640 ft 454 kts 184°
2026-05-06 17:45 -35.26693 -58.50025 30998 ft 456 kts 184°
2026-05-06 17:45 -35.29820 -58.49793 31341 ft 457 kts 184°
2026-05-06 17:45 -35.32999 -58.49559 31680 ft 459 kts 184°
2026-05-06 17:45 -35.36199 -58.49322 32003 ft 460 kts 184°
2026-05-06 17:46 -35.39395 -58.49083 32446 ft 459 kts 184°
2026-05-06 17:46 -35.42592 -58.48846 32739 ft 461 kts 184°
2026-05-06 17:46 -35.45792 -58.48611 33139 ft 460 kts 184°
2026-05-06 17:46 -35.48983 -58.48378 33481 ft 459 kts 184°
2026-05-06 17:47 -35.52166 -58.48161 33753 ft 458 kts 184°
2026-05-06 17:47 -35.55354 -58.47920 33959 ft 459 kts 184°
2026-05-06 17:47 -35.58547 -58.47674 34126 ft 461 kts 184°
2026-05-06 17:47 -35.61722 -58.47428 34634 ft 453 kts 185°
2026-05-06 17:48 -35.64855 -58.47199 35021 ft 449 kts 186°
2026-05-06 17:48 -35.67959 -58.46970 35265 ft 449 kts 186°
2026-05-06 17:48 -35.71077 -58.46745 35522 ft 449 kts 186°
2026-05-06 17:48 -35.74148 -58.46842 35740 ft 434 kts 199°
2026-05-06 17:49 -35.76941 -58.47911 35986 ft 411 kts 216°
2026-05-06 17:49 -35.79393 -58.49657 36178 ft 405 kts 221°
2026-05-06 17:49 -35.81765 -58.51515 36431 ft 404 kts 222°
2026-05-06 17:49 -35.84133 -58.53370 36718 ft 403 kts 221°
2026-05-06 17:50 -35.86490 -58.55219 37000 ft 399 kts 222°
2026-05-06 17:50 -35.88850 -58.57061 37081 ft 403 kts 220°
2026-05-06 17:50 -35.93607 -58.60698 37290 ft 400 kts 222°
2026-05-06 17:51 -35.95959 -58.62572 37441 ft 403 kts 222°
2026-05-06 17:51 -35.98282 -58.64370 37629 ft 401 kts 221°
2026-05-06 17:51 -36.00639 -58.66207 38057 ft 397 kts 222°
2026-05-06 17:51 -36.03002 -58.68042 38032 ft 404 kts 221°
2026-05-06 17:52 -36.07850 -58.71689 37699 ft 412 kts 222°
2026-05-06 17:52 -36.10253 -58.73596 37875 ft 410 kts 222°
2026-05-06 17:52 -36.12642 -58.75541 37817 ft 411 kts 221°
2026-05-06 17:53 -36.17528 -58.79373 37746 ft 419 kts 220°
2026-05-06 17:53 -36.22471 -58.83267 37784 ft 423 kts 221°
2026-05-06 17:54 -36.27439 -58.87115 37818 ft 415 kts 220°
2026-05-06 17:54 -36.32391 -58.90904 37776 ft 418 kts 219°
2026-05-06 17:55 -36.37279 -58.94773 37796 ft 413 kts 223°
2026-05-06 17:55 -36.42244 -58.98625 37780 ft 425 kts 220°
2026-05-06 17:56 -36.47275 -59.02573 37771 ft 429 kts 220°
2026-05-06 17:56 -36.52356 -59.06573 37773 ft 437 kts 220°
2026-05-06 17:57 -36.57471 -59.10611 37769 ft 435 kts 221°
2026-05-06 17:57 -36.62617 -59.14673 37769 ft 438 kts 220°
2026-05-06 17:58 -36.67744 -59.18703 37755 ft 440 kts 220°
2026-05-06 17:58 -36.72926 -59.22793 37778 ft 440 kts 220°
2026-05-06 17:59 -36.78108 -59.26895 37779 ft 441 kts 220°
2026-05-06 17:59 -36.83292 -59.31005 37773 ft 442 kts 220°
2026-05-06 18:00 -36.88484 -59.35122 37781 ft 441 kts 221°
2026-05-06 18:00 -36.93663 -59.39261 37785 ft 441 kts 222°
2026-05-06 18:01 -36.98815 -59.43374 37806 ft 439 kts 220°
2026-05-06 18:01 -37.03972 -59.47417 37799 ft 437 kts 220°
2026-05-06 18:02 -37.09088 -59.51497 37811 ft 441 kts 220°
2026-05-06 18:02 -37.14273 -59.55649 37776 ft 443 kts 221°
2026-05-06 18:03 -37.19445 -59.59870 37793 ft 443 kts 222°
2026-05-06 18:03 -37.24562 -59.64236 37782 ft 448 kts 222°
2026-05-06 18:04 -37.29765 -59.68677 37776 ft 455 kts 221°
2026-05-06 18:04 -37.35008 -59.73132 37770 ft 458 kts 223°
2026-05-06 18:05 -37.40273 -59.77580 37786 ft 453 kts 222°
2026-05-06 18:05 -37.45518 -59.82009 37760 ft 454 kts 221°
2026-05-06 18:06 -37.50731 -59.86456 37799 ft 451 kts 222°
2026-05-06 18:06 -37.55904 -59.90863 37743 ft 442 kts 223°
2026-05-06 18:07 -37.60941 -59.95202 37776 ft 442 kts 223°
2026-05-06 18:07 -37.66076 -59.99525 37815 ft 446 kts 220°
2026-05-06 18:08 -37.71163 -60.03873 37746 ft 440 kts 226°
2026-05-06 18:08 -37.76254 -60.08269 37768 ft 445 kts 223°
2026-05-06 18:09 -37.81364 -60.12661 37773 ft 445 kts 224°
2026-05-06 18:09 -37.86467 -60.17109 37747 ft 447 kts 222°
2026-05-06 18:10 -37.91617 -60.21551 37777 ft 448 kts 223°
2026-05-06 18:10 -37.96716 -60.25961 37732 ft 446 kts 223°
2026-05-06 18:11 -38.00988 -60.29623 37808 ft 440 kts 221°
2026-05-06 18:11 -38.04382 -60.32548 37256 ft 452 kts 224°
2026-05-06 18:11 -38.06981 -60.34775 36695 ft 448 kts 223°
2026-05-06 18:12 -38.09554 -60.36998 36175 ft 451 kts 224°
2026-05-06 18:12 -38.12143 -60.39314 35784 ft 452 kts 221°
2026-05-06 18:12 -38.17253 -60.43771 35900 ft 447 kts 224°
2026-05-06 18:13 -38.22492 -60.48203 35800 ft 455 kts 223°
2026-05-06 18:13 -38.27779 -60.52665 35774 ft 456 kts 223°
2026-05-06 18:14 -38.32169 -60.56374 35772 ft 455 kts 223°
2026-05-06 18:14 -38.37478 -60.60861 35811 ft 459 kts 222°
2026-05-06 18:15 -38.42758 -60.65368 35762 ft 454 kts 223°
2026-05-06 18:15 -38.47994 -60.69873 35763 ft 456 kts 222°
2026-05-06 18:16 -38.53291 -60.74398 35787 ft 460 kts 221°
2026-05-06 18:16 -38.58583 -60.78889 35760 ft 458 kts 223°
2026-05-06 18:17 -38.63901 -60.83434 35817 ft 459 kts 223°
2026-05-06 18:17 -38.69237 -60.88029 35764 ft 463 kts 223°
2026-05-06 18:18 -38.74580 -60.92669 35761 ft 464 kts 222°
2026-05-06 18:18 -38.79935 -60.97316 35780 ft 462 kts 222°
2026-05-06 18:19 -38.85279 -61.01910 35725 ft 460 kts 223°
2026-05-06 18:19 -38.90625 -61.06545 35742 ft 465 kts 223°
2026-05-06 18:20 -38.95952 -61.11170 35746 ft 466 kts 223°
2026-05-06 18:20 -39.01334 -61.15835 35746 ft 466 kts 223°
2026-05-06 18:21 -39.06715 -61.20512 35752 ft 466 kts 223°
2026-05-06 18:21 -39.12067 -61.25185 35759 ft 464 kts 224°
2026-05-06 18:22 -39.17415 -61.29880 35764 ft 464 kts 224°
2026-05-06 18:22 -39.22762 -61.34556 35758 ft 464 kts 224°
2026-05-06 18:23 -39.28058 -61.39194 35761 ft 462 kts 224°
2026-05-06 18:23 -39.33382 -61.43872 35753 ft 463 kts 224°
2026-05-06 18:24 -39.38700 -61.48550 35768 ft 461 kts 224°
2026-05-06 18:24 -39.44010 -61.53237 35762 ft 462 kts 224°
2026-05-06 18:25 -39.49322 -61.57928 35754 ft 462 kts 224°
2026-05-06 18:25 -39.54630 -61.62625 35758 ft 462 kts 224°
2026-05-06 18:26 -39.59928 -61.67330 35763 ft 462 kts 224°
2026-05-06 18:26 -39.65240 -61.72045 35760 ft 462 kts 224°
2026-05-06 18:27 -39.70540 -61.76757 35762 ft 462 kts 224°
2026-05-06 18:27 -39.75813 -61.81447 35758 ft 462 kts 224°
2026-05-06 18:28 -39.81112 -61.86182 35766 ft 462 kts 224°
2026-05-06 18:28 -39.86408 -61.90926 35769 ft 460 kts 225°
2026-05-06 18:29 -39.91353 -61.96118 35765 ft 456 kts 229°
2026-05-06 18:29 -39.96242 -62.01397 35763 ft 456 kts 229°
2026-05-06 18:30 -40.01132 -62.06666 35762 ft 456 kts 229°
2026-05-06 18:30 -40.06016 -62.11931 35774 ft 455 kts 229°
2026-05-06 18:31 -40.10903 -62.17211 35768 ft 456 kts 228°
2026-05-06 18:31 -40.15769 -62.22475 35747 ft 457 kts 229°
2026-05-06 18:32 -40.20685 -62.27797 35765 ft 459 kts 227°
2026-05-06 18:32 -40.25610 -62.33139 35768 ft 459 kts 227°
2026-05-06 18:33 -40.30503 -62.38470 35770 ft 460 kts 227°
2026-05-06 18:33 -40.35423 -62.43827 35769 ft 459 kts 227°
2026-05-06 18:34 -40.40344 -62.49193 35773 ft 460 kts 227°
2026-05-06 18:34 -40.45276 -62.54585 35757 ft 463 kts 227°
2026-05-06 18:35 -40.50226 -62.60010 35769 ft 464 kts 227°
2026-05-06 18:35 -40.55161 -62.65415 35767 ft 464 kts 227°
2026-05-06 18:36 -40.60124 -62.70889 35773 ft 464 kts 227°
2026-05-06 18:36 -40.65085 -62.76349 35774 ft 465 kts 227°
2026-05-06 18:37 -40.70043 -62.81820 35753 ft 466 kts 227°
2026-05-06 18:37 -40.74982 -62.87291 35786 ft 467 kts 227°
2026-05-06 18:38 -40.79961 -62.92812 35771 ft 468 kts 227°
2026-05-06 18:38 -40.84944 -62.98345 35776 ft 468 kts 227°
2026-05-06 18:39 -40.90123 -63.03631 35783 ft 475 kts 220°
2026-05-06 18:40 -40.98308 -63.10997 35770 ft 473 kts 221°
2026-05-06 18:40 -41.03728 -63.15966 35763 ft 473 kts 221°
2026-05-06 18:41 -41.09154 -63.20942 35765 ft 476 kts 221°
2026-05-06 18:41 -41.14582 -63.25950 35763 ft 475 kts 221°
2026-05-06 18:42 -41.20001 -63.30967 35752 ft 475 kts 221°
2026-05-06 18:42 -41.25410 -63.35980 35744 ft 474 kts 221°
2026-05-06 18:43 -41.30780 -63.40975 35752 ft 473 kts 221°
2026-05-06 18:43 -41.36190 -63.46017 35743 ft 476 kts 221°
2026-05-06 18:44 -41.41612 -63.51079 35745 ft 477 kts 221°
2026-05-06 18:44 -41.47041 -63.56150 35751 ft 475 kts 221°
2026-05-06 18:45 -41.52446 -63.61212 35749 ft 475 kts 221°
2026-05-06 18:45 -41.57815 -63.66250 35753 ft 475 kts 221°
2026-05-06 18:46 -41.63215 -63.71332 35752 ft 475 kts 221°
2026-05-06 18:46 -41.65877 -63.73836 35718 ft 459 kts 221°
2026-05-06 18:46 -41.68438 -63.76250 35702 ft 441 kts 221°
2026-05-06 18:46 -41.70897 -63.78564 35641 ft 423 kts 221°
2026-05-06 18:47 -41.73253 -63.80787 35653 ft 406 kts 222°
2026-05-06 18:47 -41.75514 -63.82929 35501 ft 392 kts 222°
2026-05-06 18:47 -41.77692 -63.84986 35053 ft 377 kts 222°
2026-05-06 18:47 -41.79808 -63.86989 34382 ft 369 kts 222°
2026-05-06 18:48 -41.81911 -63.88981 33614 ft 366 kts 222°
2026-05-06 18:48 -41.83965 -63.90923 32953 ft 357 kts 222°
2026-05-06 18:48 -41.85974 -63.92835 32161 ft 353 kts 222°
2026-05-06 18:48 -41.87949 -63.94696 31600 ft 342 kts 221°
2026-05-06 18:49 -41.89852 -63.96502 30907 ft 337 kts 222°
2026-05-06 18:49 -41.91749 -63.98330 30208 ft 335 kts 222°
2026-05-06 18:49 -41.93649 -64.00131 29446 ft 335 kts 222°
2026-05-06 18:49 -41.95557 -64.01969 28795 ft 340 kts 222°
2026-05-06 18:50 -41.97492 -64.03841 28153 ft 345 kts 221°
2026-05-06 18:50 -41.99459 -64.05721 27465 ft 349 kts 221°
2026-05-06 18:50 -42.01452 -64.07632 26748 ft 354 kts 221°
2026-05-06 18:50 -42.03472 -64.09578 26026 ft 358 kts 221°
2026-05-06 18:51 -42.05513 -64.11543 25294 ft 363 kts 221°
2026-05-06 18:51 -42.07585 -64.13533 24554 ft 368 kts 220°
2026-05-06 18:51 -42.09674 -64.15536 23920 ft 369 kts 220°
2026-05-06 18:51 -42.11758 -64.17540 23389 ft 367 kts 220°
2026-05-06 18:52 -42.13828 -64.19527 22791 ft 363 kts 220°
2026-05-06 18:52 -42.15879 -64.21499 22219 ft 359 kts 221°
2026-05-06 18:52 -42.17935 -64.23481 21237 ft 366 kts 221°
2026-05-06 18:52 -42.20022 -64.25495 20252 ft 372 kts 221°
2026-05-06 18:53 -42.22124 -64.27526 19537 ft 371 kts 221°
2026-05-06 18:53 -42.24208 -64.29532 18894 ft 366 kts 221°
2026-05-06 18:53 -42.26260 -64.31521 18292 ft 361 kts 221°
2026-05-06 18:53 -42.28289 -64.33482 17611 ft 357 kts 221°
2026-05-06 18:54 -42.30291 -64.35430 16922 ft 353 kts 221°
2026-05-06 18:54 -42.32278 -64.37358 16251 ft 350 kts 221°
2026-05-06 18:54 -42.34238 -64.39258 15607 ft 346 kts 221°
2026-05-06 18:54 -42.36184 -64.41160 14955 ft 342 kts 221°
2026-05-06 18:55 -42.38090 -64.43021 14579 ft 328 kts 221°
2026-05-06 18:55 -42.39914 -64.44783 14315 ft 316 kts 221°
2026-05-06 18:55 -42.41676 -64.46521 14049 ft 310 kts 221°
2026-05-06 18:55 -42.43409 -64.48229 13621 ft 306 kts 221°
2026-05-06 18:56 -42.45112 -64.49876 13107 ft 304 kts 221°
2026-05-06 18:56 -42.46644 -64.51771 12594 ft 295 kts 236°
2026-05-06 18:56 -42.47866 -64.53979 12127 ft 291 kts 239°
2026-05-06 18:56 -42.49047 -64.56201 11658 ft 290 kts 239°
2026-05-06 18:57 -42.50229 -64.58401 11212 ft 288 kts 238°
2026-05-06 18:57 -42.51400 -64.60593 10725 ft 286 kts 238°
2026-05-06 18:57 -42.52577 -64.62761 10273 ft 285 kts 239°
2026-05-06 18:57 -42.53736 -64.64914 9843 ft 281 kts 238°
2026-05-06 18:58 -42.54887 -64.67057 9523 ft 276 kts 237°
2026-05-06 18:58 -42.55995 -64.69105 9436 ft 262 kts 238°
2026-05-06 18:58 -42.57063 -64.71051 9376 ft 252 kts 237°
2026-05-06 18:58 -42.58088 -64.72887 9180 ft 240 kts 237°
2026-05-06 18:59 -42.59084 -64.74684 8883 ft 235 kts 238°
2026-05-06 18:59 -42.60044 -64.76504 8564 ft 236 kts 239°
2026-05-06 18:59 -42.60977 -64.78322 8214 ft 236 kts 239°
2026-05-06 18:59 -42.61951 -64.80074 7829 ft 234 kts 237°
2026-05-06 19:00 -42.62682 -64.82003 7492 ft 231 kts 255°
2026-05-06 19:00 -42.63174 -64.84074 7366 ft 229 kts 254°
2026-05-06 19:00 -42.63745 -64.86088 7109 ft 228 kts 252°
2026-05-06 19:00 -42.64129 -64.87421 7034 ft 230 kts 253°
2026-05-06 19:01 -42.64839 -64.90090 6717 ft 227 kts 255°
2026-05-06 19:01 -42.65334 -64.92132 6514 ft 226 kts 254°
2026-05-06 19:01 -42.65897 -64.94113 6188 ft 231 kts 252°
2026-05-06 19:01 -42.66528 -64.96060 5838 ft 224 kts 249°
2026-05-06 19:02 -42.66948 -64.97377 5562 ft 226 kts 253°
2026-05-06 19:02 -42.67610 -64.99286 5130 ft 229 kts 233°
2026-05-06 19:02 -42.68963 -65.00482 4774 ft 235 kts 202°
2026-05-06 19:02 -42.70515 -65.01225 4521 ft 232 kts 207°
2026-05-06 19:03 -42.71817 -65.02506 3942 ft 233 kts 236°
2026-05-06 19:03 -42.72788 -65.04267 3549 ft 233 kts 239°
2026-05-06 19:03 -42.73732 -65.06100 3144 ft 238 kts 238°
2026-05-06 19:03 -42.74682 -65.07925 2929 ft 226 kts 240°
2026-05-06 19:04 -42.75520 -65.09637 2604 ft 219 kts 244°
2026-05-06 19:04 -42.76347 -65.11429 2210 ft 223 kts 242°
2026-05-06 19:04 -42.77162 -65.13182 1975 ft 214 kts 240°
2026-05-06 19:04 -42.77966 -65.14810 1754 ft 194 kts 239°
2026-05-06 19:05 -42.78655 -65.16252 1517 ft 181 kts 240°
2026-05-06 19:05 -42.79347 -65.17643 1409 ft 176 kts 239°
2026-05-06 19:05 -42.80327 -65.17970 993 ft 155 kts 110°
2026-05-06 19:05 -42.79791 -65.17445 1069 ft 139 kts 313°
2026-05-06 19:06 -42.80180 -65.18743 1053 ft 186 kts 224°
2026-05-06 19:06 -42.81131 -65.19912 963 ft 187 kts 228°
2026-05-06 19:06 -42.80875 -65.20930 1058 ft 144 kts 34°
2026-05-06 19:06 -42.80152 -65.19821 1062 ft 173 kts 55°
2026-05-06 19:07 -42.79611 -65.18470 910 ft 155 kts 62°
2026-05-06 19:07 -42.79090 -65.17224 746 ft 149 kts 54°
2026-05-06 19:07 -42.78533 -65.16113 716 ft 140 kts 61°
2026-05-06 19:07 -42.78190 -65.14938 624 ft 122 kts 71°
2026-05-06 19:08 -42.77882 -65.13894 592 ft 122 kts 54°
2026-05-06 19:08 -42.77292 -65.12969 644 ft 130 kts 51°
2026-05-06 19:08 -42.76782 -65.12059 528 ft 110 kts 56°
2026-05-06 19:08 -42.76328 -65.11160 439 ft 115 kts 58°
2026-05-06 19:09 -42.75972 -65.10396 436 ft 75 kts 58°
2026-05-06 19:09 -42.75764 -65.09927 435 ft 47 kts 59°
2026-05-06 19:09 -42.75690 -65.09784 430 ft 6 kts 30°
2026-05-06 19:09 -42.75681 -65.09767 437 ft 1 kts 91°
2026-05-06 19:10 -42.75703 -65.09764 429 ft 6 kts 205°
2026-05-06 19:10 -42.75731 -65.09861 428 ft 16 kts 263°
2026-05-06 19:10 -42.75668 -65.09953 430 ft 12 kts 330°
2026-05-06 19:10 -42.75601 -65.10011 425 ft 11 kts 325°
2026-05-06 19:11 -42.75582 -65.10027 425 ft 0 kts 339°
2026-05-06 19:11 -42.75568 -65.10050 429 ft 1 kts 305°
2026-05-06 19:11 -42.75557 -65.10062 425 ft 1 kts 339°
2026-05-06 19:11 -42.75550 -65.10063 437 ft 0 kts 353°